Home > Weather > George Town > Past weeks

Flag for Cayman Islands Weather for the Past 2 Weeks in George Town, Cayman Islands

Now
81 °F

Warm.


Feels Like: 84 °F
Forecast: 78 / 82 °F
Wind: 5 mph from East

Location: Cayo Largo Del Sur

Current Time: Apr 29, 2016 at 1:48:45 AM

Latest Report: Apr 29, 2016 at 1:05 AM


Visibility: N/A

Pressure: 29.92 "Hg

Humidity: 70%

Dew Point: 70 °F

Location of George TownLocation

Historic Weather in George Town — Graph

°F

George Town Temperature Yesterday

Maximum temperature yesterday: 86 °F (at 2:51 PM)
Minimum temperature yesterday: 77 °F (at 5:51 AM)
Average temperature yesterday: 81 °F

High & Low Weather Summary for the Past Weeks

 TemperatureHumidityPressure
High86 °F (Apr 16, 12:50 PM)83% (Apr 17, 5:50 PM)30.09 "Hg (Apr 17, 5:50 PM)
Low73 °F (Apr 17, 4:59 PM)35% (Apr 19, 2:50 PM)29.83 "Hg (Apr 27, 4:51 PM)
Average80 °F66%29.95 "Hg
* Reported Apr 13 11:05 PM — Apr 28 11:05 PM, George Town, Weather by CustomWeather, © 2016

Note: Actual official high and low records may vary slightly from our data, if they occured in-between our weather recording intervals... More about our weather records

Advertising

George Town Weather History for the Previous 24 Hours

Scroll right to see more
 ConditionsComfort  
Time TempWeatherWind HumidityBarometerVisibility
11:05 PM
Thu, Apr 28
81 °FWarm.6 mph70%29.95 "HgN/A
10:05 PM81 °FWarm.5 mph74%29.98 "HgN/A
9:05 PM81 °FWarm.6 mph70%29.95 "HgN/A
8:05 PM79 °FWarm.3 mph79%29.95 "HgN/A
6:50 PM81 °FPassing clouds.6 mph74%29.92 "Hg6 mi
5:51 PM82 °FPassing clouds.7 mph70%29.89 "HgN/A
4:52 PM84 °FPassing clouds.9 mph62%29.89 "HgN/A
3:52 PM84 °FPassing clouds.9 mph62%29.92 "HgN/A
2:51 PM86 °FPassing clouds.10 mph55%29.92 "HgN/A
1:51 PM84 °FPassing clouds.12 mph62%29.92 "HgN/A
12:55 PM84 °FPassing clouds.13 mph62%29.92 "HgN/A
11:53 AM84 °FPassing clouds.13 mph62%29.95 "HgN/A
10:54 AM84 °FPassing clouds.12 mph66%29.98 "HgN/A
9:50 AM84 °FPassing clouds.13 mph62%29.95 "HgN/A
8:52 AM82 °FPassing clouds.12 mph66%29.98 "HgN/A
7:52 AM81 °FPassing clouds.10 mph66%29.95 "Hg6 mi
6:52 AM79 °FPassing clouds.6 mph74%29.95 "Hg6 mi
5:51 AM77 °FPassing clouds.6 mph79%29.92 "Hg6 mi
5:05 AM79 °FWarm.8 mph74%29.92 "HgN/A
4:05 AM79 °FWarm.6 mph74%29.89 "HgN/A
3:05 AM79 °FWarm.6 mph74%29.89 "HgN/A
2:05 AM79 °FWarm.6 mph74%29.89 "HgN/A
1:05 AM79 °FWarm.5 mph74%29.89 "HgN/A
Weather by CustomWeather, © 2016

See weather overviewHow to use our weather pages